User: anonymous   Login
Location: Unspecified
(0.0000°N, 0.0000°E)
Time: 02:55:53
(UTC+00:00)
Language:

MOS 1-B - Orbit

View from above orbital plane
View from above orbital plane
View from above satellite
View from above satellite

Ground track
Ground track

The orbit data is extracted from the following two-line orbital elements,

1 20478U 90013A   18171.44248436 +.00000029 +00000-0 +55063-4 0  9991
2 20478 099.3451 144.1559 0005391 171.5877 188.5375 13.95456201364890
Epoch (UTC): 20 June 2018 10:37:10
Eccentricity: 0.0005391
inclination: 99.3451°
perigee height: 905 km
apogee height: 913 km
right ascension of ascending node: 144.1559°
argument of perigee: 171.5877°
revolutions per day: 13.95456201
mean anomaly at epoch: 188.5375°
orbit number at epoch: 36489

The dashed part of the orbit path shows where the satellite is in the earth's shadow,  

DLR